Overview Statistics Trail Chart Weather Telemetry Raw packets
 

This is the latest recevied weather packets stored in our database for station/object DG6YGE-6. If no packets are shown the sender has not sent any weather packets the latest 10 day(s).

<< 52 53 54 55 56 57 58 >>
Time Temp. Humidity Pressure Rain* Wind** Luminosity Snow
1787853552 26.67° C 61% 1009.8 hPa 0 mm - 18 W/m² -
1787852952 27.22° C 60% 1009.9 hPa 0 mm - 24 W/m² -
1787852351 27.22° C 60% 1009.6 hPa 0 mm - 35 W/m² -
1787851751 27.22° C 59% 1009.8 hPa 0 mm - 43 W/m² -
1787851152 27.78° C 59% 1010 hPa 0 mm - 53 W/m² -
1787850551 27.78° C 58% 1010 hPa 0 mm - 67 W/m² -
1787849951 27.78° C 58% 1010 hPa 0 mm - 80 W/m² -
1787849351 27.78° C 57% 1010.1 hPa 0 mm - 97 W/m² -
1787848752 28.33° C 57% 1010.2 hPa 0 mm - 110 W/m² -
1787848151 28.33° C 56% 1010.2 hPa 0 mm - 121 W/m² -
1787847551 28.33° C 56% 1010.3 hPa 0 mm - 126 W/m² -
1787846951 28.33° C 55% 1010.4 hPa 0 mm - 156 W/m² -
1787846354 28.33° C 55% 1010.4 hPa 0 mm - 209 W/m² -
1787845751 28.33° C 55% 1010.5 hPa 0 mm - 196 W/m² -
1787845151 28.33° C 55% 1010.4 hPa 0 mm - 91 W/m² -
1787844551 28.33° C 56% 1010.4 hPa 0 mm - 70 W/m² -
1787843951 28.33° C 55% 1010.6 hPa 0 mm - 81 W/m² -
1787843351 28.33° C 55% 1010.5 hPa 0 mm - 103 W/m² -
1787842752 28.33° C 55% 1010.7 hPa 0 mm - 119 W/m² -
1787842152 28.33° C 56% 1010.6 hPa 0 mm - 133 W/m² -
1787841552 28.33° C 55% 1010.6 hPa 0 mm - 250 W/m² -
1787840952 28.33° C 55% 1010.5 hPa 0 mm - 137 W/m² -
1787840351 28.89° C 55% 1010.6 hPa 0 mm - 143 W/m² -
1787839751 28.89° C 54% 1010.7 hPa 0 mm - 172 W/m² -
1787839151 28.89° C 53% 1010.7 hPa 0 mm - 335 W/m² -

* Rain latest hour (hover to see other rain measurements)
** Current wind speed in m/s (hover to see current wind gust speed)